Quantico, VA

9:45 PM EST on December 13, 2019 (GMT -0500)
Quantico Marine Corps Air Facility

Weather History for KNYG - November, 2019

Change the Weather History Date:

Sunday, November 17, 2019

  Actual Average Record
Temperature  
Mean Temperature 42 °F -  
Max Temperature 46 °F 53 °F 66 °F (1998)
Min Temperature 37 °F 36 °F 24 °F (1996)
Degree Days  
Heating Degree Days 24    
Moisture  
Dew Point 33 °F    
Average Humidity 64    
Maximum Humidity 74    
Minimum Humidity 55    
Precipitation  
Precipitation 0.00 in - - ()
Sea Level Pressure  
Sea Level Pressure 30.20 in    
Wind  
Wind Speed 14 mph (NNE)    
Max Wind Speed 16 mph    
Max Gust Speed 26 mph    
Visibility 10 miles    
Events      
Averages and records for this station are not official NWS values.
T = Trace of Precipitation, MM = Missing Value Source: NWS Daily Summary

Daily Weather History Graph

Daily Weather History Graph

Search for Another Location

Airport or City:

Astronomy

Nov. 17, 2019 Rise Set
Actual Time 6:52 AM EST 4:55 PM EST
Civil Twilight 6:24 AM EST 5:23 PM EST
Nautical Twilight 5:52 AM EST 5:55 PM EST
Astronomical Twilight 5:20 AM EST 6:26 PM EST
Moon 9:30 PM EST (11/17) 11:35 AM EST (11/17)
Length of Visible Light 10h 58m
Length of Day
10h 02m
Waning Gibbous, 73% of the Moon is Illuminated
Nov 17
Waning Gibbous
Nov 19
Last Quarter
Nov 26
New
Dec 4
First Quarter
Dec 12
Full

Hourly Weather History & Observations

Time (EST) Temp. Windchill Dew Point Humidity Pressure Visibility Wind Dir Wind Speed Gust Speed Precip Events Conditions
12:56 AM 39.9 °F 31.4 °F - N/A% 30.33 in 10.0 mi NNE 16.1 mph - N/A   Overcast
1:56 AM 39.9 °F 31.8 °F - N/A% 30.32 in 10.0 mi NNE 15.0 mph 26.5 mph N/A   Overcast
2:35 AM 39.0 °F 31.0 °F - N/A% 30.31 in 10.0 mi NNE 13.8 mph 25.3 mph N/A   Overcast
2:56 AM 39.0 °F 30.3 °F - N/A% 30.30 in 10.0 mi NNE 16.1 mph 25.3 mph N/A   Overcast
3:56 AM 39.0 °F 30.3 °F - N/A% 30.29 in 10.0 mi NNE 16.1 mph 25.3 mph N/A   Overcast
4:08 AM 39.0 °F 30.3 °F - N/A% 30.28 in 10.0 mi NNE 16.1 mph 25.3 mph N/A   Overcast
4:56 AM 39.0 °F 30.6 °F - N/A% 30.29 in 10.0 mi NNE 15.0 mph 23.0 mph N/A   Overcast
5:03 AM 39.0 °F 30.6 °F - N/A% 30.28 in 10.0 mi North 15.0 mph 23.0 mph N/A   Overcast
5:20 AM 39.0 °F 30.6 °F - N/A% 30.28 in 10.0 mi North 15.0 mph 24.2 mph N/A   Overcast
5:30 AM 39.0 °F 30.6 °F - N/A% 30.28 in 10.0 mi North 15.0 mph - N/A   Overcast
5:56 AM 37.9 °F 28.9 °F - N/A% 30.29 in 10.0 mi NNE 16.1 mph - N/A   Overcast
6:56 AM 37.9 °F 28.9 °F - N/A% 30.29 in 10.0 mi North 16.1 mph - N/A   Overcast
7:16 AM 37.9 °F 30.5 °F - N/A% 30.28 in 10.0 mi North 11.5 mph - N/A   Overcast
7:36 AM 37.9 °F 30.0 °F - N/A% 30.28 in 10.0 mi North 12.7 mph - N/A   Overcast
7:56 AM 37.9 °F 29.6 °F - N/A% 30.28 in 10.0 mi NNE 13.8 mph - N/A   Overcast
8:56 AM 39.0 °F 30.6 °F - N/A% 30.28 in 10.0 mi NNE 15.0 mph 25.3 mph N/A   Overcast
9:11 AM 39.0 °F 30.6 °F - N/A% 30.27 in 10.0 mi North 15.0 mph - N/A   Overcast
9:56 AM 39.9 °F 32.5 °F - N/A% 30.27 in 10.0 mi NNE 12.7 mph - N/A   Overcast
10:56 AM 41.0 °F 34.7 °F 26.1 °F 55% 30.25 in 10.0 mi NNE 10.4 mph - N/A   Overcast
11:56 AM 43.0 °F 37.2 °F 28.0 °F 56% 30.22 in 10.0 mi NNE 10.4 mph - N/A   Overcast
12:42 PM 44.1 °F 38.6 °F 28.9 °F 55% 30.18 in 10.0 mi NNE 10.4 mph - N/A   Overcast
12:56 PM 44.1 °F 37.7 °F 30.0 °F 58% 30.17 in 10.0 mi North 12.7 mph - N/A   Mostly Cloudy
1:56 PM 45.0 °F 39.3 °F 30.9 °F 58% 30.14 in 10.0 mi NE 11.5 mph - N/A   Mostly Cloudy
2:13 PM 46.0 °F 40.6 °F 30.9 °F 56% 30.14 in 10.0 mi NE 11.5 mph - N/A   Overcast
2:56 PM 46.0 °F 41.0 °F 30.9 °F 56% 30.13 in 10.0 mi NNE 10.4 mph - N/A   Overcast
3:56 PM 45.0 °F 39.3 °F 33.1 °F 63% 30.11 in 10.0 mi NNE 11.5 mph - N/A   Overcast
4:56 PM 45.0 °F 39.7 °F 34.0 °F 65% 30.11 in 10.0 mi NNE 10.4 mph - N/A   Overcast
5:28 PM 45.0 °F 39.7 °F 34.0 °F 65% 30.10 in 10.0 mi NNE 10.4 mph - N/A   Overcast
5:56 PM 45.0 °F 39.3 °F 34.0 °F 65% 30.11 in 10.0 mi NNE 11.5 mph - N/A   Overcast
6:04 PM 45.0 °F 38.5 °F 34.0 °F 65% 30.10 in 10.0 mi NNE 13.8 mph - N/A   Overcast
6:36 PM 44.1 °F 39.0 °F 36.0 °F 73% 30.10 in 10.0 mi NNE 9.2 mph - N/A   Overcast
6:56 PM 44.1 °F 39.0 °F 36.0 °F 73% 30.10 in 10.0 mi North 9.2 mph - N/A   Overcast
7:56 PM 44.1 °F 39.5 °F 35.1 °F 71% 30.08 in 10.0 mi North 8.1 mph - N/A   Overcast
8:56 PM 44.1 °F 40.1 °F 35.1 °F 71% 30.06 in 10.0 mi North 6.9 mph - N/A   Overcast
9:56 PM 43.0 °F 37.7 °F 35.1 °F 74% 30.05 in 9.0 mi North 9.2 mph - N/A   Overcast
10:56 PM 43.0 °F 37.7 °F 35.1 °F 74% 30.02 in 9.0 mi North 9.2 mph - N/A   Overcast
11:56 PM 43.0 °F 39.5 °F 34.0 °F 71% 30.01 in 10.0 mi NNW 5.8 mph - N/A   Overcast